THORAD DELTA 1 DEB, 9987

Orbit data source: Space-Track

THORAD DELTA 1 DEB, 9987 is space debris in SSO originally from a launch on Fri, 15 Nov 1974 UTC launched from the Air Force Western Test Range (AFWTR). Debris objects in space refer to the collection of defunct objects orbiting the Earth. Examples of debris include non-operational satellites, rocket bodies, and fragments generated from explosions, collisions, or faulty payload assembly.

Loading next visibility...
Identifier
9987, 1974-089EE
Orbit
SSO
Country
Flag of USUS
Related business
Manufacturer
Unknown
Mission
Spacecraft
Bus & Motor
Unknown
Mass
Unknown
Launch date (UTC)
1974-11-15 (51 years ago)
Launch vehicle
Unknown
Launch site
Air Force Western Test Range (AFWTR)
Object type
Payload
Rocket body
Debris
Shape & HBR
Unknown shape, 0.1 m
Radar Cross Section
Small (<0.1 m²)

Expand to show TLE details & history
Last TLE update: 11 hours ago

TLE from 11 hours ago
0 THORAD DELTA 1 DEB
1 09987U 74089EE  25287.33577044  .00000719  00000-0  47984-2 0  9999
2 09987 101.4668  66.0076 0101929 223.0349 165.0176 12.51854025318585
Epoch: 2025-10-14T08:03Z
TLE epoch observation values (Epoch: 2025-10-14T08:03:30.566Z)
Latitude
27.77498°
Longitude
-84.09852°
Altitude
1,537.09 km
Speed
7.065 km/s
True Right ascension
03h 59m 37s
True Declination
27° 38' 51"
Sunlit
Object was in full shadow at epoch
Visualization orbit readout
Latitude
Unknown
Longitude
Unknown
Altitude
Unknown
Speed
Unknown
Apparent Right ascension
Unknown
Apparent Declination
Unknown
Sunlit
N/A
Visualization observer readout
Local Sidereal Time
13:49:35
Azimuth
Unknown
Elevation
Unknown
Doppler factor
Unknown
Orbital elements
Apogee altitude
1,534.112 km
Perigee altitude
1,374.442 km
Semi-major axis
7,832.414 km
Eccentricity
0.01019
Inclination
101.4668°
RAAN
66.0076°
Arg. of periapsis
223.0349°
True anomaly
165.31588°
Mean anomaly
165.0176°
Eccentric anomaly
165.16711°
Mean motion
3.13112 °/min
Orbital period
114.97 mins
BSTAR
0.0047984
Loading maneuver chart data...
Computing Atmospheric mass density...

Documentation

Showing up to 5 results
|